Time,TemperatureF,DewpointF,PressureIn,WindDirection,WindDirectionDegrees,WindSpeedMPH,WindSpeedGustMPH,Humidity,HourlyPrecipIn,Conditions,Clouds,dailyrainin,SoftwareType,DateUTC
2013-03-17 00:04:00,43.1,40.7,30.25,NW,318,11.0,12.0,91,0.00,,,0.00,Wunderground v.1.15,2013-03-17 07:04:00,
2013-03-17 00:10:00,42.5,40.3,30.25,North,355,11.0,11.0,92,0.00,,,0.00,Wunderground v.1.15,2013-03-17 07:10:00,
2013-03-17 00:17:00,42.5,40.1,30.25,NNW,343,10.0,13.0,91,0.00,,,0.00,Wunderground v.1.15,2013-03-17 07:17:00,
2013-03-17 00:22:00,42.7,40.3,30.25,NNW,334,8.0,9.0,91,0.00,,,0.00,Wunderground v.1.15,2013-03-17 07:22:00,
2013-03-17 00:28:00,43.0,40.3,30.25,North,355,8.0,13.0,90,0.00,,,0.00,Wunderground v.1.15,2013-03-17 07:28:00,
2013-03-17 00:33:00,43.1,40.4,30.25,North,355,8.0,10.0,90,0.00,,,0.00,Wunderground v.1.15,2013-03-17 07:33:00,
2013-03-17 00:38:00,43.0,40.3,30.25,NNW,345,8.0,10.0,90,0.00,,,0.00,Wunderground v.1.15,2013-03-17 07:38:00,
2013-03-17 00:43:00,42.9,39.6,30.25,North,360,7.0,10.0,88,0.00,,,0.00,Wunderground v.1.15,2013-03-17 07:43:00,
2013-03-17 00:49:00,43.2,39.6,30.25,NNW,344,7.0,10.0,87,0.00,,,0.00,Wunderground v.1.15,2013-03-17 07:49:00,
2013-03-17 00:54:00,43.2,39.6,30.25,NNW,346,6.0,7.0,87,0.00,,,0.00,Wunderground v.1.15,2013-03-17 07:54:00,
2013-03-17 00:59:00,43.4,39.2,30.25,North,355,5.0,7.0,85,0.00,,,0.00,Wunderground v.1.15,2013-03-17 07:59:00,
2013-03-17 01:04:00,43.5,38.7,30.25,NNW,346,6.0,22.0,83,0.00,,,0.00,Wunderground v.1.15,2013-03-17 08:04:00,
2013-03-17 01:09:00,43.9,38.8,30.25,North,350,7.0,22.0,82,0.00,,,0.00,Wunderground v.1.15,2013-03-17 08:09:00,
2013-03-17 01:15:00,44.2,38.4,30.25,North,5,8.0,22.0,80,0.00,,,0.00,Wunderground v.1.15,2013-03-17 08:15:00,
2013-03-17 01:20:00,44.2,38.1,30.25,North,355,9.0,22.0,79,0.00,,,0.00,Wunderground v.1.15,2013-03-17 08:20:00,
2013-03-17 01:26:00,44.2,38.1,30.25,WNW,296,8.0,22.0,79,0.00,,,0.00,Wunderground v.1.15,2013-03-17 08:26:00,
2013-03-17 01:32:00,44.2,38.1,30.25,NW,321,9.0,22.0,79,0.00,,,0.00,Wunderground v.1.15,2013-03-17 08:32:00,
2013-03-17 01:37:00,44.0,37.9,30.25,NW,314,9.0,22.0,79,0.00,,,0.00,Wunderground v.1.15,2013-03-17 08:37:00,
2013-03-17 01:43:00,43.8,37.7,30.25,NW,325,7.0,22.0,79,0.00,,,0.00,Wunderground v.1.15,2013-03-17 08:43:00,
2013-03-17 01:48:00,43.9,38.1,30.25,North,355,7.0,22.0,80,0.00,,,0.00,Wunderground v.1.15,2013-03-17 08:48:00,
2013-03-17 01:54:00,44.0,38.2,30.25,NNW,334,8.0,22.0,80,0.00,,,0.00,Wunderground v.1.15,2013-03-17 08:54:00,
2013-03-17 01:59:00,44.0,38.2,30.26,North,351,9.0,22.0,80,0.00,,,0.00,Wunderground v.1.15,2013-03-17 08:59:00,
2013-03-17 02:05:00,44.0,38.2,30.26,North,5,10.0,22.0,80,0.00,,,0.00,Wunderground v.1.15,2013-03-17 09:05:00,
2013-03-17 02:10:00,43.9,38.1,30.26,NNE,12,9.0,22.0,80,0.00,,,0.00,Wunderground v.1.15,2013-03-17 09:10:00,
2013-03-17 02:15:00,43.8,38.0,30.26,NW,323,9.0,22.0,80,0.00,,,0.00,Wunderground v.1.15,2013-03-17 09:15:00,
2013-03-17 02:22:00,43.8,38.0,30.27,NW,317,8.0,22.0,80,0.00,,,0.00,Wunderground v.1.15,2013-03-17 09:22:00,
2013-03-17 02:27:00,43.8,38.0,30.27,NNW,328,8.0,22.0,80,0.00,,,0.00,Wunderground v.1.15,2013-03-17 09:27:00,
2013-03-17 02:33:00,43.8,37.4,30.27,NW,324,8.0,22.0,78,0.00,,,0.00,Wunderground v.1.15,2013-03-17 09:33:00,
2013-03-17 02:39:00,43.8,37.1,30.27,North,355,7.0,22.0,77,0.00,,,0.00,Wunderground v.1.15,2013-03-17 09:39:00,
2013-03-17 02:44:00,43.9,36.8,30.27,NNW,347,7.0,22.0,76,0.00,,,0.00,Wunderground v.1.15,2013-03-17 09:44:00,
2013-03-17 02:50:00,43.9,37.2,30.27,North,5,9.0,9.0,77,0.00,,,0.00,Wunderground v.1.15,2013-03-17 09:50:00,
2013-03-17 02:55:00,43.7,37.6,30.27,NNW,337,8.0,22.0,79,0.00,,,0.00,Wunderground v.1.15,2013-03-17 09:55:00,
2013-03-17 03:00:00,43.6,37.5,30.27,NNW,333,7.0,7.0,79,0.00,,,0.00,Wunderground v.1.15,2013-03-17 10:00:00,
2013-03-17 03:06:00,43.5,37.4,30.27,North,349,7.0,22.0,79,0.00,,,0.00,Wunderground v.1.15,2013-03-17 10:06:00,
2013-03-17 03:12:00,43.4,36.7,30.28,NNW,348,7.0,22.0,77,0.00,,,0.00,Wunderground v.1.15,2013-03-17 10:12:00,
2013-03-17 03:18:00,43.4,36.7,30.28,NNW,327,6.0,22.0,77,0.00,,,0.00,Wunderground v.1.15,2013-03-17 10:18:00,
2013-03-17 03:23:00,43.4,36.7,30.28,NNW,330,6.0,22.0,77,0.00,,,0.00,Wunderground v.1.15,2013-03-17 10:23:00,
2013-03-17 03:29:00,43.4,36.0,30.28,NNW,329,6.0,22.0,75,0.00,,,0.00,Wunderground v.1.15,2013-03-17 10:29:00,
2013-03-17 03:34:00,43.3,35.9,30.28,NW,324,7.0,22.0,75,0.00,,,0.00,Wunderground v.1.15,2013-03-17 10:34:00,
2013-03-17 03:39:00,43.3,35.9,30.28,North,349,7.0,22.0,75,0.00,,,0.00,Wunderground v.1.15,2013-03-17 10:39:00,
2013-03-17 03:45:00,43.3,35.6,30.28,NNW,336,6.0,22.0,74,0.00,,,0.00,Wunderground v.1.15,2013-03-17 10:45:00,
2013-03-17 03:50:00,43.4,35.3,30.28,North,360,7.0,22.0,73,0.00,,,0.00,Wunderground v.1.15,2013-03-17 10:50:00,
2013-03-17 03:56:00,43.3,34.2,30.28,NNW,329,7.0,22.0,70,0.00,,,0.00,Wunderground v.1.15,2013-03-17 10:56:00,
2013-03-17 04:02:00,43.4,33.9,30.28,North,355,6.0,22.0,69,0.00,,,0.00,Wunderground v.1.15,2013-03-17 11:02:00,
2013-03-17 04:08:00,43.5,34.4,30.28,North,355,7.0,22.0,70,0.00,,,0.00,Wunderground v.1.15,2013-03-17 11:08:00,
2013-03-17 04:13:00,43.6,34.8,30.28,NNW,344,9.0,22.0,71,0.00,,,0.00,Wunderground v.1.15,2013-03-17 11:13:00,
2013-03-17 04:18:00,43.5,35.4,30.28,North,349,8.0,22.0,73,0.00,,,0.00,Wunderground v.1.15,2013-03-17 11:18:00,
2013-03-17 04:24:00,43.5,35.1,30.28,North,355,8.0,22.0,72,0.00,,,0.00,Wunderground v.1.15,2013-03-17 11:24:00,
2013-03-17 04:30:00,43.4,35.3,30.28,North,360,8.0,22.0,73,0.00,,,0.00,Wunderground v.1.15,2013-03-17 11:30:00,
2013-03-17 04:35:00,43.4,35.3,30.28,North,350,8.0,22.0,73,0.00,,,0.00,Wunderground v.1.15,2013-03-17 11:35:00,
2013-03-17 04:41:00,43.4,35.3,30.29,North,351,7.0,22.0,73,0.00,,,0.00,Wunderground v.1.15,2013-03-17 11:41:00,
2013-03-17 04:47:00,43.4,35.7,30.29,North,360,7.0,22.0,74,0.00,,,0.00,Wunderground v.1.15,2013-03-17 11:47:00,
2013-03-17 04:53:00,43.2,35.8,30.29,North,351,7.0,22.0,75,0.00,,,0.00,Wunderground v.1.15,2013-03-17 11:53:00,
2013-03-17 04:58:00,43.1,35.7,30.30,NNW,348,6.0,22.0,75,0.00,,,0.00,Wunderground v.1.15,2013-03-17 11:58:00,
2013-03-17 05:04:00,43.2,35.1,30.30,North,350,5.0,22.0,73,0.00,,,0.00,Wunderground v.1.15,2013-03-17 12:04:00,
2013-03-17 05:09:00,43.4,36.3,30.30,NNW,346,6.0,22.0,76,0.00,,,0.00,Wunderground v.1.15,2013-03-17 12:09:00,
2013-03-17 05:14:00,43.4,36.7,30.30,North,355,7.0,22.0,77,0.00,,,0.00,Wunderground v.1.15,2013-03-17 12:14:00,
2013-03-17 05:19:00,43.4,36.3,30.30,North,355,8.0,22.0,76,0.00,,,0.00,Wunderground v.1.15,2013-03-17 12:19:00,
2013-03-17 05:25:00,43.5,36.1,30.30,NNW,347,9.0,22.0,75,0.00,,,0.00,Wunderground v.1.15,2013-03-17 12:25:00,
2013-03-17 05:30:00,43.5,36.4,30.30,NNW,338,9.0,22.0,76,0.00,,,0.00,Wunderground v.1.15,2013-03-17 12:30:00,
2013-03-17 05:35:00,43.4,35.7,30.30,North,355,9.0,22.0,74,0.00,,,0.00,Wunderground v.1.15,2013-03-17 12:35:00,
2013-03-17 05:42:00,43.4,36.0,30.31,North,360,8.0,22.0,75,0.00,,,0.00,Wunderground v.1.15,2013-03-17 12:42:00,
2013-03-17 05:47:00,43.4,35.3,30.31,North,350,8.0,22.0,73,0.00,,,0.00,Wunderground v.1.15,2013-03-17 12:47:00,
2013-03-17 05:52:00,43.5,35.4,30.31,North,11,9.0,22.0,73,0.00,,,0.00,Wunderground v.1.15,2013-03-17 12:52:00,
2013-03-17 05:58:00,43.3,35.6,30.31,North,360,8.0,22.0,74,0.00,,,0.00,Wunderground v.1.15,2013-03-17 12:58:00,
2013-03-17 06:03:00,43.3,35.6,30.31,North,360,7.0,22.0,74,0.00,,,0.00,Wunderground v.1.15,2013-03-17 13:03:00,
2013-03-17 06:09:00,43.2,35.5,30.31,North,5,7.0,22.0,74,0.00,,,0.00,Wunderground v.1.15,2013-03-17 13:09:00,
2013-03-17 06:14:00,42.7,35.3,30.31,NNW,347,4.0,22.0,75,0.00,,,0.00,Wunderground v.1.15,2013-03-17 13:14:00,
2013-03-17 06:20:00,41.7,34.7,30.31,NNW,347,1.0,1.0,76,0.00,,,0.00,Wunderground v.1.15,2013-03-17 13:20:00,
2013-03-17 06:25:00,41.0,34.3,30.31,NNE,13,1.0,22.0,77,0.00,,,0.00,Wunderground v.1.15,2013-03-17 13:25:00,
2013-03-17 06:31:00,40.6,34.6,30.31,NE,46,3.0,22.0,79,0.00,,,0.00,Wunderground v.1.15,2013-03-17 13:31:00,
2013-03-17 06:37:00,40.1,34.1,30.31,NE,46,3.0,22.0,79,0.00,,,0.00,Wunderground v.1.15,2013-03-17 13:37:00,
2013-03-17 06:42:00,39.6,33.9,30.31,NE,46,2.0,22.0,80,0.00,,,0.00,Wunderground v.1.15,2013-03-17 13:42:00,
2013-03-17 06:47:00,39.2,33.9,30.32,NE,46,1.0,22.0,81,0.00,,,0.00,Wunderground v.1.15,2013-03-17 13:47:00,
2013-03-17 06:52:00,39.0,33.7,30.32,NE,46,1.0,22.0,81,0.00,,,0.00,Wunderground v.1.15,2013-03-17 13:52:00,
2013-03-17 06:57:00,38.7,33.7,30.32,NE,46,1.0,22.0,82,0.00,,,0.00,Wunderground v.1.15,2013-03-17 13:57:00,
2013-03-17 07:03:00,38.5,33.5,30.32,NE,46,0.0,22.0,82,0.00,,,0.00,Wunderground v.1.15,2013-03-17 14:03:00,
2013-03-17 07:08:00,38.4,33.4,30.32,NE,46,0.0,22.0,82,0.00,,,0.00,Wunderground v.1.15,2013-03-17 14:08:00,
2013-03-17 07:14:00,38.2,33.5,30.32,NE,46,0.0,22.0,83,0.00,,,0.00,Wunderground v.1.15,2013-03-17 14:14:00,
2013-03-17 07:19:00,38.1,33.4,30.32,NE,46,1.0,22.0,83,0.00,,,0.00,Wunderground v.1.15,2013-03-17 14:19:00,
2013-03-17 07:24:00,37.8,33.1,30.33,NE,46,1.0,22.0,83,0.00,,,0.00,Wunderground v.1.15,2013-03-17 14:24:00,
2013-03-17 07:30:00,37.6,32.9,30.33,NE,46,0.0,22.0,83,0.00,,,0.00,Wunderground v.1.15,2013-03-17 14:30:00,
2013-03-17 07:35:00,37.4,33.0,30.33,NE,46,0.0,22.0,84,0.00,,,0.00,Wunderground v.1.15,2013-03-17 14:35:00,
2013-03-17 07:40:00,37.2,32.8,30.33,NE,46,0.0,22.0,84,0.00,,,0.00,Wunderground v.1.15,2013-03-17 14:40:00,
2013-03-17 07:46:00,37.2,33.1,30.33,NE,46,0.0,22.0,85,0.00,,,0.00,Wunderground v.1.15,2013-03-17 14:46:00,
2013-03-17 07:51:00,37.2,33.1,30.33,NE,46,1.0,22.0,85,0.00,,,0.00,Wunderground v.1.15,2013-03-17 14:51:00,
2013-03-17 07:57:00,37.2,33.1,30.33,NE,46,1.0,22.0,85,0.00,,,0.00,Wunderground v.1.15,2013-03-17 14:57:00,
2013-03-17 08:02:00,37.4,33.6,30.33,NE,46,1.0,22.0,86,0.00,,,0.00,Wunderground v.1.15,2013-03-17 15:02:00,
2013-03-17 08:07:00,37.6,34.1,30.33,NE,46,1.0,22.0,87,0.00,,,0.00,Wunderground v.1.15,2013-03-17 15:07:00,
2013-03-17 08:13:00,38.0,34.5,30.33,NE,46,2.0,22.0,87,0.00,,,0.00,Wunderground v.1.15,2013-03-17 15:13:00,
2013-03-17 08:18:00,38.1,34.6,30.33,NE,48,3.0,22.0,87,0.00,,,0.00,Wunderground v.1.15,2013-03-17 15:18:00,
2013-03-17 08:23:00,38.2,34.7,30.33,NE,49,2.0,22.0,87,0.00,,,0.00,Wunderground v.1.15,2013-03-17 15:23:00,
2013-03-17 08:28:00,38.4,34.9,30.33,ENE,77,2.0,22.0,87,0.00,,,0.00,Wunderground v.1.15,2013-03-17 15:28:00,
2013-03-17 08:33:00,38.5,35.3,30.33,East,101,2.0,22.0,88,0.00,,,0.00,Wunderground v.1.15,2013-03-17 15:33:00,
2013-03-17 08:39:00,38.7,35.5,30.33,ESE,116,2.0,22.0,88,0.00,,,0.00,Wunderground v.1.15,2013-03-17 15:39:00,
2013-03-17 08:45:00,39.1,35.8,30.33,ESE,107,2.0,22.0,88,0.00,,,0.00,Wunderground v.1.15,2013-03-17 15:45:00,
2013-03-17 08:51:00,39.4,36.1,30.33,East,90,2.0,3.0,88,0.00,,,0.00,Wunderground v.1.15,2013-03-17 15:51:00,
2013-03-17 08:57:00,39.7,36.4,30.33,East,91,2.0,22.0,88,0.00,,,0.00,Wunderground v.1.15,2013-03-17 15:57:00,
2013-03-17 09:02:00,40.0,36.7,30.33,East,90,2.0,22.0,88,0.00,,,0.00,Wunderground v.1.15,2013-03-17 16:02:00,
2013-03-17 09:08:00,40.2,36.9,30.33,ESE,104,2.0,22.0,88,0.00,,,0.00,Wunderground v.1.15,2013-03-17 16:08:00,
2013-03-17 09:13:00,40.6,37.3,30.33,East,94,2.0,22.0,88,0.00,,,0.00,Wunderground v.1.15,2013-03-17 16:13:00,
2013-03-17 09:18:00,40.9,37.6,30.33,East,94,3.0,22.0,88,0.00,,,0.00,Wunderground v.1.15,2013-03-17 16:18:00,
2013-03-17 09:24:00,41.3,37.7,30.33,ESE,102,3.0,22.0,87,0.00,,,0.00,Wunderground v.1.15,2013-03-17 16:24:00,
2013-03-17 09:29:00,41.8,38.2,30.33,ESE,112,2.0,22.0,87,0.00,,,0.00,Wunderground v.1.15,2013-03-17 16:29:00,
2013-03-17 09:35:00,42.5,38.9,30.33,ESE,115,2.0,22.0,87,0.00,,,0.00,Wunderground v.1.15,2013-03-17 16:35:00,
2013-03-17 09:41:00,43.3,39.4,30.33,ESE,106,2.0,5.0,86,0.00,,,0.00,Wunderground v.1.15,2013-03-17 16:41:00,
2013-03-17 09:47:00,43.8,39.6,30.33,East,94,3.0,22.0,85,0.00,,,0.00,Wunderground v.1.15,2013-03-17 16:47:00,
2013-03-17 09:53:00,44.2,39.4,30.33,ENE,78,3.0,22.0,83,0.00,,,0.00,Wunderground v.1.15,2013-03-17 16:53:00,
2013-03-17 09:59:00,44.1,38.6,30.33,East,92,4.0,22.0,81,0.00,,,0.00,Wunderground v.1.15,2013-03-17 16:59:00,
2013-03-17 10:05:00,44.5,38.7,30.33,East,91,3.0,22.0,80,0.00,,,0.00,Wunderground v.1.15,2013-03-17 17:05:00,
2013-03-17 10:11:00,44.7,38.3,30.33,East,80,4.0,22.0,78,0.00,,,0.00,Wunderground v.1.15,2013-03-17 17:11:00,
2013-03-17 10:17:00,44.4,37.6,30.33,East,80,4.0,22.0,77,0.00,,,0.00,Wunderground v.1.15,2013-03-17 17:17:00,
2013-03-17 10:23:00,44.7,38.3,30.33,East,81,4.0,22.0,78,0.00,,,0.00,Wunderground v.1.15,2013-03-17 17:23:00,
2013-03-17 10:28:00,44.7,38.6,30.33,ENE,65,5.0,22.0,79,0.00,,,0.00,Wunderground v.1.15,2013-03-17 17:28:00,
2013-03-17 10:34:00,44.3,38.2,30.33,ENE,72,6.0,22.0,79,0.00,,,0.00,Wunderground v.1.15,2013-03-17 17:34:00,
2013-03-17 10:40:00,44.2,38.4,30.33,North,9,5.0,22.0,80,0.00,,,0.00,Wunderground v.1.15,2013-03-17 17:40:00,
2013-03-17 10:47:00,43.6,37.5,30.33,ENE,65,5.0,22.0,79,0.00,,,0.00,Wunderground v.1.15,2013-03-17 17:47:00,
2013-03-17 10:52:00,43.4,37.3,30.33,ENE,63,5.0,22.0,79,0.00,,,0.00,Wunderground v.1.15,2013-03-17 17:52:00,
2013-03-17 10:57:00,43.7,37.6,30.33,NE,50,5.0,22.0,79,0.00,,,0.00,Wunderground v.1.15,2013-03-17 17:57:00,
2013-03-17 11:03:00,44.0,37.9,30.33,NE,55,4.0,22.0,79,0.00,,,0.00,Wunderground v.1.15,2013-03-17 18:03:00,
2013-03-17 11:09:00,44.6,38.2,30.32,ENE,63,4.0,22.0,78,0.00,,,0.00,Wunderground v.1.15,2013-03-17 18:09:00,
2013-03-17 11:14:00,45.0,38.6,30.32,ENE,65,3.0,22.0,78,0.00,,,0.00,Wunderground v.1.15,2013-03-17 18:14:00,
2013-03-17 11:20:00,45.1,38.3,30.32,NNE,28,3.0,3.0,77,0.00,,,0.00,Wunderground v.1.15,2013-03-17 18:20:00,
2013-03-17 11:27:00,45.0,38.2,30.32,NNE,24,2.0,22.0,77,0.00,,,0.00,Wunderground v.1.15,2013-03-17 18:27:00,
2013-03-17 11:33:00,44.8,38.0,30.32,North,5,3.0,22.0,77,0.00,,,0.00,Wunderground v.1.15,2013-03-17 18:33:00,
2013-03-17 11:39:00,44.5,38.1,30.32,North,355,3.0,22.0,78,0.00,,,0.00,Wunderground v.1.15,2013-03-17 18:39:00,
2013-03-17 11:44:00,44.4,38.0,30.32,NNW,345,4.0,22.0,78,0.00,,,0.00,Wunderground v.1.15,2013-03-17 18:44:00,
2013-03-17 11:50:00,44.4,38.0,30.32,NNW,345,4.0,22.0,78,0.00,,,0.00,Wunderground v.1.15,2013-03-17 18:50:00,
2013-03-17 11:56:00,44.2,37.4,30.32,NNW,347,4.0,22.0,77,0.00,,,0.00,Wunderground v.1.15,2013-03-17 18:56:00,
2013-03-17 12:03:00,44.5,37.7,30.32,NNW,340,4.0,22.0,77,0.00,,,0.00,Wunderground v.1.15,2013-03-17 19:03:00,
2013-03-17 12:08:00,44.3,37.5,30.31,NNW,339,4.0,22.0,77,0.00,,,0.00,Wunderground v.1.15,2013-03-17 19:08:00,
2013-03-17 12:14:00,44.3,37.9,30.31,NNW,343,4.0,22.0,78,0.00,,,0.00,Wunderground v.1.15,2013-03-17 19:14:00,
2013-03-17 12:19:00,44.5,38.1,30.31,NNW,336,4.0,22.0,78,0.00,,,0.00,Wunderground v.1.15,2013-03-17 19:19:00,
2013-03-17 12:25:00,45.1,38.3,30.31,NNW,335,5.0,22.0,77,0.00,,,0.00,Wunderground v.1.15,2013-03-17 19:25:00,
2013-03-17 12:31:00,44.9,38.1,30.31,North,349,5.0,22.0,77,0.00,,,0.00,Wunderground v.1.15,2013-03-17 19:31:00,
2013-03-17 12:36:00,44.7,37.6,30.32,North,355,6.0,22.0,76,0.00,,,0.00,Wunderground v.1.15,2013-03-17 19:36:00,
2013-03-17 12:42:00,44.4,37.0,30.31,North,355,7.0,22.0,75,0.00,,,0.00,Wunderground v.1.15,2013-03-17 19:42:00,
2013-03-17 12:48:00,44.3,36.9,30.31,North,350,8.0,22.0,75,0.00,,,0.00,Wunderground v.1.15,2013-03-17 19:48:00,
2013-03-17 12:54:00,44.9,37.8,30.31,NNW,346,8.0,22.0,76,0.00,,,0.00,Wunderground v.1.15,2013-03-17 19:54:00,
2013-03-17 12:59:00,45.2,37.7,30.31,North,351,7.0,22.0,75,0.00,,,0.00,Wunderground v.1.15,2013-03-17 19:59:00,
2013-03-17 13:04:00,45.5,38.4,30.31,North,355,6.0,22.0,76,0.00,,,0.00,Wunderground v.1.15,2013-03-17 20:04:00,
2013-03-17 13:09:00,45.3,37.5,30.30,NNW,346,6.0,22.0,74,0.00,,,0.00,Wunderground v.1.15,2013-03-17 20:09:00,
2013-03-17 13:15:00,45.5,38.0,30.30,North,355,7.0,22.0,75,0.00,,,0.00,Wunderground v.1.15,2013-03-17 20:15:00,
2013-03-17 13:20:00,45.4,37.6,30.30,NNW,348,8.0,22.0,74,0.00,,,0.00,Wunderground v.1.15,2013-03-17 20:20:00,
2013-03-17 13:26:00,45.4,37.6,30.30,NNW,344,9.0,22.0,74,0.00,,,0.00,Wunderground v.1.15,2013-03-17 20:26:00,
2013-03-17 13:31:00,45.6,38.1,30.30,North,360,9.0,22.0,75,0.00,,,0.00,Wunderground v.1.15,2013-03-17 20:31:00,
2013-03-17 13:36:00,45.4,37.9,30.30,NNW,341,9.0,22.0,75,0.00,,,0.00,Wunderground v.1.15,2013-03-17 20:36:00,
2013-03-17 13:42:00,45.7,37.9,30.30,NNW,343,9.0,22.0,74,0.00,,,0.00,Wunderground v.1.15,2013-03-17 20:42:00,
2013-03-17 13:48:00,45.7,37.9,30.30,North,355,7.0,22.0,74,0.00,,,0.00,Wunderground v.1.15,2013-03-17 20:48:00,
2013-03-17 13:53:00,46.0,38.2,30.30,NNW,343,6.0,22.0,74,0.00,,,0.00,Wunderground v.1.15,2013-03-17 20:53:00,
2013-03-17 13:59:00,45.8,37.3,30.30,NNW,333,6.0,22.0,72,0.00,,,0.00,Wunderground v.1.15,2013-03-17 20:59:00,
2013-03-17 14:04:00,45.8,37.6,30.30,NNW,338,7.0,22.0,73,0.00,,,0.00,Wunderground v.1.15,2013-03-17 21:04:00,
2013-03-17 14:09:00,46.0,37.8,30.30,NNW,333,7.0,22.0,73,0.00,,,0.00,Wunderground v.1.15,2013-03-17 21:09:00,
2013-03-17 14:15:00,46.0,37.8,30.30,NNW,345,7.0,22.0,73,0.00,,,0.00,Wunderground v.1.15,2013-03-17 21:15:00,
2013-03-17 14:20:00,46.0,37.1,30.30,NW,317,7.0,22.0,71,0.00,,,0.00,Wunderground v.1.15,2013-03-17 21:20:00,
2013-03-17 14:27:00,45.9,37.0,30.29,NNW,340,7.0,22.0,71,0.00,,,0.00,Wunderground v.1.15,2013-03-17 21:27:00,
2013-03-17 14:32:00,46.0,37.8,30.29,NNW,345,7.0,22.0,73,0.00,,,0.00,Wunderground v.1.15,2013-03-17 21:32:00,
2013-03-17 14:37:00,45.9,37.7,30.28,NNW,329,8.0,22.0,73,0.00,,,0.00,Wunderground v.1.15,2013-03-17 21:37:00,
2013-03-17 14:43:00,45.9,38.1,30.28,NNW,348,8.0,22.0,74,0.00,,,0.00,Wunderground v.1.15,2013-03-17 21:43:00,
2013-03-17 14:48:00,45.8,38.0,30.28,North,5,9.0,22.0,74,0.00,,,0.00,Wunderground v.1.15,2013-03-17 21:48:00,
2013-03-17 14:54:00,45.8,38.0,30.28,NNW,330,9.0,22.0,74,0.00,,,0.00,Wunderground v.1.15,2013-03-17 21:54:00,
2013-03-17 14:59:00,45.8,36.9,30.28,NNW,348,9.0,22.0,71,0.00,,,0.00,Wunderground v.1.15,2013-03-17 21:59:00,
2013-03-17 15:05:00,45.9,37.4,30.28,North,360,9.0,22.0,72,0.00,,,0.00,Wunderground v.1.15,2013-03-17 22:05:00,
2013-03-17 15:10:00,45.8,36.9,30.28,North,11,10.0,10.0,71,0.00,,,0.00,Wunderground v.1.15,2013-03-17 22:10:00,
2013-03-17 15:16:00,45.9,37.4,30.28,NNW,343,10.0,22.0,72,0.00,,,0.00,Wunderground v.1.15,2013-03-17 22:16:00,
2013-03-17 15:21:00,45.8,37.3,30.28,NNW,344,10.0,22.0,72,0.00,,,0.00,Wunderground v.1.15,2013-03-17 22:21:00,
2013-03-17 15:27:00,45.6,37.4,30.28,North,351,11.0,22.0,73,0.00,,,0.00,Wunderground v.1.15,2013-03-17 22:27:00,
2013-03-17 15:32:00,45.6,37.8,30.28,North,360,12.0,22.0,74,0.00,,,0.00,Wunderground v.1.15,2013-03-17 22:32:00,
2013-03-17 15:37:00,45.6,37.4,30.28,NNW,341,11.0,22.0,73,0.00,,,0.00,Wunderground v.1.15,2013-03-17 22:37:00,
2013-03-17 15:42:00,45.7,38.2,30.28,North,355,11.0,22.0,75,0.00,,,0.00,Wunderground v.1.15,2013-03-17 22:42:00,
2013-03-17 15:48:00,45.7,38.6,30.28,NNW,344,11.0,22.0,76,0.00,,,0.00,Wunderground v.1.15,2013-03-17 22:48:00,
2013-03-17 15:54:00,45.7,38.2,30.28,North,355,11.0,22.0,75,0.00,,,0.00,Wunderground v.1.15,2013-03-17 22:54:00,
2013-03-17 16:00:00,45.8,38.3,30.28,North,360,10.0,10.0,75,0.00,,,0.00,Wunderground v.1.15,2013-03-17 23:00:00,
2013-03-17 16:06:00,45.8,38.3,30.28,North,9,11.0,22.0,75,0.00,,,0.00,Wunderground v.1.15,2013-03-17 23:06:00,
2013-03-17 16:11:00,45.7,37.9,30.28,North,355,11.0,22.0,74,0.00,,,0.00,Wunderground v.1.15,2013-03-17 23:11:00,
2013-03-17 16:17:00,45.9,38.1,30.28,North,355,10.0,22.0,74,0.00,,,0.00,Wunderground v.1.15,2013-03-17 23:17:00,
2013-03-17 16:23:00,45.6,37.8,30.28,North,9,11.0,22.0,74,0.00,,,0.00,Wunderground v.1.15,2013-03-17 23:23:00,
2013-03-17 16:29:00,45.5,38.0,30.28,North,355,12.0,22.0,75,0.00,,,0.00,Wunderground v.1.15,2013-03-17 23:29:00,
2013-03-17 16:34:00,45.6,38.5,30.28,North,349,11.0,22.0,76,0.00,,,0.00,Wunderground v.1.15,2013-03-17 23:34:00,
2013-03-17 16:40:00,45.8,38.0,30.28,North,350,10.0,10.0,74,0.00,,,0.00,Wunderground v.1.15,2013-03-17 23:40:00,
2013-03-17 16:45:00,45.8,38.3,30.28,North,351,10.0,22.0,75,0.00,,,0.00,Wunderground v.1.15,2013-03-17 23:45:00,
2013-03-17 16:50:00,45.7,37.9,30.28,North,355,11.0,22.0,74,0.00,,,0.00,Wunderground v.1.15,2013-03-17 23:50:00,
2013-03-17 16:56:00,45.7,38.6,30.28,North,360,11.0,22.0,76,0.00,,,0.00,Wunderground v.1.15,2013-03-17 23:56:00,
2013-03-17 17:02:00,45.8,39.0,30.28,North,360,10.0,22.0,77,0.00,,,0.00,Wunderground v.1.15,2013-03-18 00:02:00,
2013-03-17 17:08:00,45.6,38.5,30.28,North,360,11.0,22.0,76,0.00,,,0.00,Wunderground v.1.15,2013-03-18 00:08:00,
2013-03-17 17:14:00,45.6,38.1,30.28,North,355,11.0,22.0,75,0.00,,,0.00,Wunderground v.1.15,2013-03-18 00:14:00,
2013-03-17 17:20:00,45.6,37.8,30.28,North,360,11.0,11.0,74,0.00,,,0.00,Wunderground v.1.15,2013-03-18 00:20:00,
2013-03-17 17:26:00,45.6,38.1,30.28,North,355,12.0,22.0,75,0.00,,,0.00,Wunderground v.1.15,2013-03-18 00:26:00,
2013-03-17 17:32:00,45.6,38.1,30.28,North,355,11.0,22.0,75,0.00,,,0.00,Wunderground v.1.15,2013-03-18 00:32:00,
2013-03-17 17:37:00,45.6,38.1,30.28,North,355,11.0,22.0,75,0.00,,,0.00,Wunderground v.1.15,2013-03-18 00:37:00,
2013-03-17 17:43:00,45.4,37.2,30.28,North,5,11.0,22.0,73,0.00,,,0.00,Wunderground v.1.15,2013-03-18 00:43:00,
2013-03-17 17:48:00,45.6,37.4,30.28,North,355,12.0,22.0,73,0.00,,,0.00,Wunderground v.1.15,2013-03-18 00:48:00,
2013-03-17 17:54:00,45.5,36.6,30.28,North,355,12.0,22.0,71,0.00,,,0.00,Wunderground v.1.15,2013-03-18 00:54:00,
2013-03-17 18:00:00,45.5,37.0,30.28,North,5,12.0,22.0,72,0.00,,,0.00,Wunderground v.1.15,2013-03-18 01:00:00,
2013-03-17 18:05:00,45.4,37.2,30.28,North,5,13.0,22.0,73,0.00,,,0.00,Wunderground v.1.15,2013-03-18 01:05:00,
2013-03-17 18:10:00,45.6,37.4,30.28,North,349,13.0,13.0,73,0.00,,,0.00,Wunderground v.1.15,2013-03-18 01:10:00,
2013-03-17 18:17:00,45.4,37.6,30.28,North,360,13.0,22.0,74,0.00,,,0.00,Wunderground v.1.15,2013-03-18 01:17:00,
2013-03-17 18:22:00,45.3,37.8,30.28,North,5,13.0,22.0,75,0.00,,,0.00,Wunderground v.1.15,2013-03-18 01:22:00,
2013-03-17 18:28:00,45.1,37.0,30.27,North,9,13.0,22.0,73,0.00,,,0.00,Wunderground v.1.15,2013-03-18 01:28:00,
2013-03-17 18:33:00,45.1,37.3,30.27,North,350,13.0,22.0,74,0.00,,,0.00,Wunderground v.1.15,2013-03-18 01:33:00,
2013-03-17 18:39:00,45.0,37.2,30.27,NNW,332,12.0,22.0,74,0.00,,,0.00,Wunderground v.1.15,2013-03-18 01:39:00,
2013-03-17 18:45:00,44.9,37.1,30.27,NW,318,12.0,22.0,74,0.00,,,0.00,Wunderground v.1.15,2013-03-18 01:45:00,
2013-03-17 18:50:00,44.8,37.0,30.27,North,350,12.0,22.0,74,0.00,,,0.00,Wunderground v.1.15,2013-03-18 01:50:00,
2013-03-17 18:55:00,44.7,37.9,30.27,North,11,12.0,22.0,77,0.00,,,0.00,Wunderground v.1.15,2013-03-18 01:55:00,
2013-03-17 19:00:00,44.5,37.4,30.27,North,355,12.0,22.0,76,0.00,,,0.00,Wunderground v.1.15,2013-03-18 02:00:00,
2013-03-17 19:07:00,44.4,37.0,30.27,North,355,11.0,22.0,75,0.00,,,0.00,Wunderground v.1.15,2013-03-18 02:07:00,
2013-03-17 19:12:00,44.3,37.2,30.27,NNW,338,10.0,22.0,76,0.00,,,0.00,Wunderground v.1.15,2013-03-18 02:12:00,
2013-03-17 19:18:00,44.1,36.7,30.27,NNW,348,11.0,22.0,75,0.00,,,0.00,Wunderground v.1.15,2013-03-18 02:18:00,
2013-03-17 19:24:00,44.1,37.3,30.27,North,5,11.0,22.0,77,0.00,,,0.00,Wunderground v.1.15,2013-03-18 02:24:00,
2013-03-17 19:29:00,44.0,37.6,30.27,North,360,10.0,22.0,78,0.00,,,0.00,Wunderground v.1.15,2013-03-18 02:29:00,
2013-03-17 19:35:00,43.9,37.2,30.27,North,350,10.0,22.0,77,0.00,,,0.00,Wunderground v.1.15,2013-03-18 02:35:00,
2013-03-17 19:40:00,43.9,37.5,30.27,NNE,17,8.0,8.0,78,0.00,,,0.00,Wunderground v.1.15,2013-03-18 02:40:00,
2013-03-17 19:46:00,43.8,37.1,30.27,North,360,8.0,22.0,77,0.00,,,0.00,Wunderground v.1.15,2013-03-18 02:46:00,
2013-03-17 19:51:00,43.6,36.9,30.27,NNE,26,6.0,22.0,77,0.00,,,0.00,Wunderground v.1.15,2013-03-18 02:51:00,
2013-03-17 19:57:00,43.4,36.7,30.27,NE,45,4.0,22.0,77,0.00,,,0.00,Wunderground v.1.15,2013-03-18 02:57:00,
2013-03-17 20:03:00,43.0,36.6,30.27,NE,41,4.0,22.0,78,0.00,,,0.00,Wunderground v.1.15,2013-03-18 03:03:00,
2013-03-17 20:09:00,42.5,36.1,30.27,ENE,61,4.0,22.0,78,0.00,,,0.00,Wunderground v.1.15,2013-03-18 03:09:00,
2013-03-17 20:15:00,42.3,36.3,30.27,NE,53,4.0,22.0,79,0.00,,,0.00,Wunderground v.1.15,2013-03-18 03:15:00,
2013-03-17 20:20:00,42.2,36.2,30.27,NE,55,4.0,22.0,79,0.00,,,0.00,Wunderground v.1.15,2013-03-18 03:20:00,
2013-03-17 20:25:00,42.1,36.4,30.27,NE,55,4.0,22.0,80,0.00,,,0.00,Wunderground v.1.15,2013-03-18 03:25:00,
2013-03-17 20:30:00,41.9,36.2,30.27,NE,55,4.0,22.0,80,0.00,,,0.00,Wunderground v.1.15,2013-03-18 03:30:00,
2013-03-17 20:37:00,41.8,36.1,30.27,ENE,61,3.0,22.0,80,0.00,,,0.00,Wunderground v.1.15,2013-03-18 03:37:00,
2013-03-17 20:42:00,41.7,36.0,30.27,ENE,67,4.0,22.0,80,0.00,,,0.00,Wunderground v.1.15,2013-03-18 03:42:00,
2013-03-17 20:48:00,41.6,35.9,30.27,ENE,67,4.0,22.0,80,0.00,,,0.00,Wunderground v.1.15,2013-03-18 03:48:00,
2013-03-17 20:53:00,41.5,35.8,30.27,ENE,68,4.0,22.0,80,0.00,,,0.00,Wunderground v.1.15,2013-03-18 03:53:00,
2013-03-17 20:59:00,41.3,35.9,30.27,ENE,68,4.0,22.0,81,0.00,,,0.00,Wunderground v.1.15,2013-03-18 03:59:00,
2013-03-17 21:00:00,41.3,35.9,30.27,ENE,68,4.0,4.0,81,0.00,,,0.00,Wunderground v.1.15,2013-03-18 04:00:00,
2013-03-17 21:02:00,41.2,35.8,30.27,ENE,62,3.0,22.0,81,0.00,,,0.00,Wunderground v.1.15,2013-03-18 04:02:00,
2013-03-17 21:03:00,41.2,35.8,30.27,ENE,61,3.0,22.0,81,0.00,,,0.00,Wunderground v.1.15,2013-03-18 04:03:00,
2013-03-17 21:04:00,41.2,35.8,30.27,ENE,60,3.0,22.0,81,0.00,,,0.00,Wunderground v.1.15,2013-03-18 04:04:00,
2013-03-17 21:10:00,41.1,35.7,30.27,ENE,65,4.0,4.0,81,0.00,,,0.00,Wunderground v.1.15,2013-03-18 04:10:00,
2013-03-17 21:16:00,40.9,35.8,30.27,ENE,67,3.0,22.0,82,0.00,,,0.00,Wunderground v.1.15,2013-03-18 04:16:00,
2013-03-17 21:22:00,40.8,35.7,30.28,ENE,67,4.0,22.0,82,0.00,,,0.00,Wunderground v.1.15,2013-03-18 04:22:00,
2013-03-17 21:27:00,40.5,35.4,30.28,ENE,68,4.0,22.0,82,0.00,,,0.00,Wunderground v.1.15,2013-03-18 04:27:00,
2013-03-17 21:33:00,40.3,35.2,30.28,ENE,67,5.0,22.0,82,0.00,,,0.00,Wunderground v.1.15,2013-03-18 04:33:00,
2013-03-17 21:39:00,40.2,35.4,30.28,ENE,63,4.0,22.0,83,0.00,,,0.00,Wunderground v.1.15,2013-03-18 04:39:00,
2013-03-17 21:44:00,40.2,35.4,30.28,ENE,60,5.0,22.0,83,0.00,,,0.00,Wunderground v.1.15,2013-03-18 04:44:00,
2013-03-17 21:50:00,40.1,35.4,30.28,ENE,60,5.0,5.0,83,0.00,,,0.00,Wunderground v.1.15,2013-03-18 04:50:00,
2013-03-17 21:56:00,40.0,35.3,30.28,ENE,67,4.0,22.0,83,0.00,,,0.00,Wunderground v.1.15,2013-03-18 04:56:00,
2013-03-17 22:02:00,39.8,35.1,30.28,ENE,64,5.0,22.0,83,0.00,,,0.00,Wunderground v.1.15,2013-03-18 05:02:00,
2013-03-17 22:08:00,39.7,35.3,30.28,ENE,64,4.0,22.0,84,0.00,,,0.00,Wunderground v.1.15,2013-03-18 05:08:00,
2013-03-17 22:14:00,39.6,35.2,30.28,ENE,64,3.0,22.0,84,0.00,,,0.00,Wunderground v.1.15,2013-03-18 05:14:00,
2013-03-17 22:19:00,39.6,35.2,30.28,ENE,64,3.0,22.0,84,0.00,,,0.00,Wunderground v.1.15,2013-03-18 05:19:00,
2013-03-17 22:25:00,39.6,35.5,30.27,ENE,64,3.0,22.0,85,0.00,,,0.00,Wunderground v.1.15,2013-03-18 05:25:00,
2013-03-17 22:32:00,39.7,35.6,30.27,ENE,64,3.0,22.0,85,0.00,,,0.00,Wunderground v.1.15,2013-03-18 05:32:00,
2013-03-17 22:37:00,39.6,35.5,30.27,ENE,64,3.0,22.0,85,0.00,,,0.00,Wunderground v.1.15,2013-03-18 05:37:00,
2013-03-17 22:42:00,39.7,35.6,30.27,ENE,65,4.0,22.0,85,0.00,,,0.00,Wunderground v.1.15,2013-03-18 05:42:00,
2013-03-17 22:47:00,39.6,35.5,30.27,ENE,66,4.0,22.0,85,0.00,,,0.00,Wunderground v.1.15,2013-03-18 05:47:00,
2013-03-17 22:53:00,39.4,35.3,30.27,ENE,67,3.0,22.0,85,0.00,,,0.00,Wunderground v.1.15,2013-03-18 05:53:00,
2013-03-17 22:58:00,39.1,35.0,30.27,ENE,69,3.0,22.0,85,0.00,,,0.00,Wunderground v.1.15,2013-03-18 05:58:00,
2013-03-17 23:04:00,38.9,34.8,30.27,ENE,69,4.0,22.0,85,0.00,,,0.00,Wunderground v.1.15,2013-03-18 06:04:00,
2013-03-17 23:09:00,38.7,34.9,30.27,ENE,69,4.0,22.0,86,0.00,,,0.00,Wunderground v.1.15,2013-03-18 06:09:00,
2013-03-17 23:14:00,38.5,34.7,30.27,ENE,70,3.0,22.0,86,0.00,,,0.00,Wunderground v.1.15,2013-03-18 06:14:00,
2013-03-17 23:19:00,38.4,34.6,30.28,ENE,70,3.0,22.0,86,0.00,,,0.00,Wunderground v.1.15,2013-03-18 06:19:00,
2013-03-17 23:25:00,38.3,34.8,30.28,ENE,70,3.0,22.0,87,0.00,,,0.00,Wunderground v.1.15,2013-03-18 06:25:00,
2013-03-17 23:31:00,38.2,34.7,30.28,ENE,70,3.0,22.0,87,0.00,,,0.00,Wunderground v.1.15,2013-03-18 06:31:00,
2013-03-17 23:37:00,38.0,34.5,30.27,ENE,70,3.0,22.0,87,0.00,,,0.00,Wunderground v.1.15,2013-03-18 06:37:00,
2013-03-17 23:42:00,37.9,34.4,30.27,ENE,70,3.0,22.0,87,0.00,,,0.00,Wunderground v.1.15,2013-03-18 06:42:00,
2013-03-17 23:48:00,37.8,34.3,30.27,ENE,70,3.0,22.0,87,0.00,,,0.00,Wunderground v.1.15,2013-03-18 06:48:00,
2013-03-17 23:54:00,37.8,34.6,30.27,ENE,70,3.0,22.0,88,0.00,,,0.00,Wunderground v.1.15,2013-03-18 06:54:00,
2013-03-17 23:59:00,37.8,34.6,30.27,ENE,70,3.0,22.0,88,0.00,,,0.00,Wunderground v.1.15,2013-03-18 06:59:00,